Weather History for Norfolk, VA

Change the Weather History Date:

Tuesday, July 9, 2013

  Actual Average Record
Temperature  
Mean Temperature 83 °F 80 °F  
Max Temperature 90 °F 88 °F 100 °F (1986)
Min Temperature 75 °F 72 °F 57 °F (1978)
Degree Days  
Heating Degree Days 0 0  
Month to date heating degree days 0 0  
Since 1 June heating degree days 0 6  
Since 1 July heating degree days 0 0  
Cooling Degree Days 18 15  
Month to date cooling degree days 151 129  
Year to date cooling degree days 734 610  
Since 1 June cooling degree days 513 444  
Growing Degree Days 32 (Base 50)    
Moisture  
Dew Point 72 °F    
Average Humidity 73    
Maximum Humidity 94    
Minimum Humidity 52    
Precipitation  
Precipitation 0.00 in 0.14 in 2.84 in (1950)
Month to date precipitation 1.96 1.29  
Year to date precipitation 22.00 22.57  
Snow  
Snow 0.00 in 0.00 in 0.00 in (2002)
Month to date snowfall 0.0 0.0  
Since 1 July snowfall 0.0 0.0  
Snow Depth 0.00 in    
Sea Level Pressure  
Sea Level Pressure 30.11 in    
Wind  
Wind Speed 11 mph (SSW)    
Max Wind Speed 18 mph    
Max Gust Speed 22 mph    
Visibility 10 miles    
Events      
T = Trace of Precipitation, MM = Missing Value Source: NWS Daily Summary

Daily Weather History Graph

Daily Weather History Graph

Search for Another Location

Airport:

Trip Planner

Search our weather history database for the weather conditions in past years. The results will help you decide how hot, cold, wet, or windy it might be!

Date:

Astronomy

Jul. 09, 2013 Rise Set
Actual Time 5:53 AM EDT 8:26 PM EDT
Civil Twilight 5:23 AM EDT 8:56 PM EDT
Nautical Twilight 4:45 AM EDT 9:34 PM EDT
Astronomical Twilight 4:03 AM EDT 10:15 PM EDT
Moon 7:12 AM EDT (7/9) 9:06 PM EDT (7/9)
Length of Visible Light 15h 33m
Length of Day
14h 32m
New Moon, 2% of the Moon is Illuminated
Jul 9
New Moon
Jul 15
First Quarter
Jul 22
Full
Jul 29
Last Quarter
Aug 6
New

Hourly Weather History & Observations

Time (EDT) Temp. Heat Index Dew Point Humidity Pressure Visibility Wind Dir Wind Speed Gust Speed Precip Events Conditions
12:51 AM 77.0 °F - 73.0 °F 88% 30.13 in 10.0 mi South 5.8 mph - N/A   Partly Cloudy
1:51 AM 77.0 °F - 73.0 °F 88% 30.13 in 10.0 mi South 5.8 mph - N/A   Clear
2:51 AM 75.9 °F - 73.0 °F 91% 30.12 in 10.0 mi SSW 5.8 mph - N/A   Clear
3:51 AM 75.9 °F - 72.0 °F 87% 30.12 in 10.0 mi SSW 10.4 mph - N/A   Clear
4:51 AM 75.0 °F - 71.1 °F 87% 30.12 in 10.0 mi SW 9.2 mph - N/A   Clear
5:51 AM 75.0 °F - 71.1 °F 87% 30.12 in 10.0 mi SSW 10.4 mph - N/A   Clear
6:51 AM 75.0 °F - 71.1 °F 87% 30.13 in 10.0 mi SW 10.4 mph - N/A   Clear
7:51 AM 77.0 °F - 72.0 °F 84% 30.14 in 10.0 mi SW 16.1 mph - N/A   Clear
8:18 AM 77.0 °F - 71.6 °F 83% 30.15 in 10.0 mi SSW 13.8 mph - N/A   Mostly Cloudy
8:51 AM 79.0 °F - 72.0 °F 79% 30.15 in 10.0 mi SW 13.8 mph - N/A   Overcast
9:22 AM 80.6 °F 84.6 °F 71.6 °F 74% 30.14 in 10.0 mi SSW 11.5 mph - N/A   Scattered Clouds
9:51 AM 81.0 °F 85.2 °F 72.0 °F 74% 30.14 in 10.0 mi SSW 10.4 mph - N/A   Partly Cloudy
10:51 AM 84.9 °F 92.1 °F 73.9 °F 69% 30.14 in 10.0 mi SW 10.4 mph - N/A   Clear
11:51 AM 86.0 °F 93.0 °F 73.0 °F 65% 30.14 in 10.0 mi SSW 12.7 mph - N/A   Clear
12:51 PM 86.0 °F 93.0 °F 73.0 °F 65% 30.12 in 10.0 mi South 10.4 mph - N/A   Partly Cloudy
1:51 PM 87.1 °F 93.6 °F 72.0 °F 61% 30.11 in 10.0 mi SSW 11.5 mph - N/A   Clear
2:51 PM 87.1 °F 92.8 °F 71.1 °F 59% 30.11 in 10.0 mi SW 10.4 mph - N/A   Partly Cloudy
3:51 PM 89.1 °F 95.0 °F 71.1 °F 55% 30.08 in 10.0 mi SSW 10.4 mph 18.4 mph N/A   Unknown
4:51 PM 88.0 °F 93.8 °F 71.1 °F 57% 30.07 in 10.0 mi SW 10.4 mph - N/A   Partly Cloudy
5:51 PM 89.1 °F 94.1 °F 70.0 °F 53% 30.06 in 10.0 mi SW 13.8 mph - N/A   Clear
6:51 PM 86.0 °F 90.7 °F 70.0 °F 59% 30.06 in 10.0 mi SSW 12.7 mph - N/A   Mostly Cloudy
7:51 PM 84.9 °F 91.4 °F 73.0 °F 67% 30.05 in 10.0 mi SSW 16.1 mph - N/A   Partly Cloudy
8:51 PM 82.0 °F 84.9 °F 68.0 °F 62% 30.07 in 10.0 mi SW 10.4 mph - N/A   Clear
9:51 PM 80.1 °F 82.7 °F 68.0 °F 67% 30.10 in 10.0 mi SW 12.7 mph - N/A   Clear
10:51 PM 79.0 °F - 71.1 °F 77% 30.11 in 10.0 mi SW 13.8 mph - N/A   Partly Cloudy
11:51 PM 78.1 °F - 71.1 °F 79% 30.10 in 10.0 mi SSW 11.5 mph - N/A   Overcast